Погода в Мякинино

Россия / Московская область     55°48′30″N   37°22′32″E
темп.,
°C
ветер,
м/с
пор.,
м/с
влажн.,
%
обл.,
%
осадки,
мм/ч
давл.,
гПа
погр.,
м
14 апреля, ср
ср1400:00+13ююв414515 0.0 1021405
03:00+11ююв3126068 0.0 1020298
06:00+10ююв3147122 0.0 1020361
09:00+13ю497094 0.0 1020445
12:00+17ю585034 0.0 10191187
15:00+19ю4744100 0.0 10181914
18:00+18ююз254650 0.0 1017768
21:00+15ю115547 0.0 101815
15 апреля, чт
чт1500:00+12вюв115697 0.0 101710
03:00+11всв1255100 0.0 101715
06:00+10св2458100 0.0 101779
09:00+12всв3451100 0.0 1018255
12:00+15всв3442100 0.0 1018701
15:00+17всв4536100 0.0 10171473
18:00+15св71063100 0.0 1018801
21:00+9св71477100 0.0 1020535
16 апреля, пт
пт1600:00+8всв51380100 0.0 1020575
03:00+7всв61380100 0.0 1021554
06:00+6всв51282100 0.3 1021552
09:00+7всв61276100 0.4 1022635
12:00+11всв696099 0.0 1022872
15:00+14всв795290 0.1 10221176
18:00+13всв61056100 0.0 10231066
21:00+11всв61261100 0.0 1024897
17 апреля, сб
сб1700:00+9всв61359100 0.0 1025676
03:00+7всв51255100 0.0 1026487
06:00+6всв51358100 0.0 1028493
09:00+8всв6114581 0.0 1029677
12:00+12всв692925 0.0 10291264
15:00+13всв68259 0.0 10281588
18:00+12всв68305 0.0 10281501
21:00+9всв510415 0.0 1029982
18 апреля, вс
вс1800:00+8всв411500 0.0 1030649
03:00+6всв411580 0.0 1030438
06:00+5всв410655 0.0 1031348
09:00+8в485132 0.0 1031616
12:00+12в57385 0.0 10301631
15:00+14в56339 0.0 10292013
18:00+13всв553572 0.0 10291874
21:00+10всв494610 0.0 1030613